User: anonymous   Login
Location: Slidell
(30.2789°N, 89.7378°W)
Time: 20:58:49
(UTC-05:00)
Language:

Cosmos 2360 Rocket - Orbit

View from above orbital plane
View from above orbital plane
View from above satellite
View from above satellite

Ground track
Ground track

The orbit data is extracted from the following two-line orbital elements,

1 25407U 98045B   17289.60584705 -.00000271 +00000-0 -11351-3 0  9992
2 25407 071.0101 146.2761 0007357 004.1008 356.0174 14.15768087993095
Epoch (UTC): 16 October 2017 14:32:25
Eccentricity: 0.0007357
inclination: 71.0101°
perigee height: 834 km
apogee height: 845 km
right ascension of ascending node: 146.2761°
argument of perigee: 4.1008°
revolutions per day: 14.15768087
mean anomaly at epoch: 356.0174°
orbit number at epoch: 99309

The dashed part of the orbit path shows where the satellite is in the earth's shadow,  

DLR